Tocumen, Panama

7:18 PM EST on December 14, 2018 (GMT -0500)
Tocumen International

Weather History for MPTO - October, 2018

Change the Weather History Date:

Friday, October 12, 2018

  Actual Average Record
Temperature  
Mean Temperature 78 °F -  
Max Temperature 84 °F 85 °F 91 °F (2010)
Min Temperature 73 °F 73 °F 71 °F (1996)
Cooling Degree Days 14    
Growing Degree Days 28 (Base 50)    
Moisture  
Dew Point 74 °F    
Average Humidity 88    
Maximum Humidity 100    
Minimum Humidity 74    
Precipitation  
Precipitation 0.00 in - - ()
Sea Level Pressure  
Sea Level Pressure 29.86 in    
Wind  
Wind Speed 7 mph ()    
Max Wind Speed 21 mph    
Max Gust Speed -    
Visibility 5.7 miles    
Events Rain    
Averages and records for this station are not official NWS values.
T = Trace of Precipitation, MM = Missing Value Source: Averaged Metar Reports

Daily Weather History Graph

Daily Weather History Graph

Search for Another Location

Airport or City:

Astronomy

Oct. 12, 2018 Rise Set
Actual Time 6:05 AM EST 6:02 PM EST
Civil Twilight 5:44 AM EST 6:23 PM EST
Nautical Twilight 5:19 AM EST 6:47 PM EST
Astronomical Twilight 4:55 AM EST 7:12 PM EST
Moon 9:09 AM EST (10/12) 9:09 PM EST (10/12)
Length of Visible Light 12h 39m
Length of Day
11h 57m
Waxing Crescent, 14% of the Moon is Illuminated
Oct 12
Waxing Crescent
Oct 16
First Quarter
Oct 24
Full
Oct 31
Last Quarter
Nov 7
New

Hourly Weather History & Observations

Time (EST) Temp. Heat Index Dew Point Humidity Pressure Visibility Wind Dir Wind Speed Gust Speed Precip Events Conditions
12:00 AM 73.4 °F - 73.4 °F 100% 29.89 in 6.2 mi Calm Calm - N/A   Mostly Cloudy
1:00 AM 73.4 °F - 73.4 °F 100% 29.89 in 6.2 mi Calm Calm - N/A   Scattered Clouds
2:00 AM 73.4 °F - 73.4 °F 100% 29.86 in 6.2 mi Calm Calm - N/A   Scattered Clouds
3:00 AM 75.2 °F - 73.4 °F 94% 29.86 in 6.2 mi Variable 2.3 mph - N/A   Scattered Clouds
4:00 AM 73.4 °F - 73.4 °F 100% 29.83 in 6.2 mi NNE 4.6 mph - N/A   Scattered Clouds
5:00 AM 73.4 °F - 73.4 °F 100% 29.83 in 6.2 mi North 3.5 mph - N/A   Scattered Clouds
6:00 AM 75.2 °F - 73.4 °F 94% 29.83 in 6.2 mi Calm Calm - N/A   Scattered Clouds
7:00 AM 77.0 °F - 73.4 °F 89% 29.86 in 6.2 mi SSW 15.0 mph - N/A   Scattered Clouds
8:00 AM 78.8 °F - 73.4 °F 83% 29.89 in 6.2 mi SSW 12.7 mph - N/A   Scattered Clouds
9:00 AM 80.6 °F 85.4 °F 73.4 °F 79% 29.92 in 6.2 mi SSW 17.3 mph - N/A   Scattered Clouds
10:00 AM 82.4 °F 89.5 °F 75.2 °F 79% 29.92 in 6.2 mi SSW 15.0 mph - N/A   Scattered Clouds
11:00 AM 82.4 °F 89.5 °F 75.2 °F 79% 29.89 in 6.2 mi South 15.0 mph - N/A   Scattered Clouds
12:00 PM 84.2 °F 92.3 °F 75.2 °F 74% 29.86 in 6.2 mi SSW 20.7 mph - N/A   Scattered Clouds
1:00 PM 84.2 °F 92.3 °F 75.2 °F 74% 29.86 in 6.2 mi South 16.1 mph - N/A   Scattered Clouds
2:00 PM 82.4 °F 89.5 °F 75.2 °F 79% 29.83 in 5.6 mi South 18.4 mph - N/A   Scattered Clouds
3:00 PM 78.8 °F - 75.2 °F 89% 29.83 in 5.0 mi South 19.6 mph - N/A   Scattered Clouds
3:35 PM 77.0 °F - 75.2 °F 94% 29.83 in 4.3 mi SSW 19.6 mph - N/A Rain Heavy Rain
4:00 PM 75.2 °F - 73.4 °F 94% 29.83 in 2.5 mi SSW 15.0 mph - N/A Rain Heavy Rain
5:00 PM 77.0 °F - 75.2 °F 94% 29.83 in 3.1 mi SW 9.2 mph - N/A Rain Heavy Rain
5:26 PM 77.0 °F - 73.4 °F 89% 29.83 in 5.0 mi SSW 11.5 mph - N/A Rain Light Rain
6:00 PM 77.0 °F - 73.4 °F 89% 29.86 in 5.0 mi SSW 9.2 mph - N/A   Overcast
7:00 PM 77.0 °F - 73.4 °F 89% 29.86 in 5.6 mi SSW 6.9 mph - N/A Rain Light Rain
8:00 PM 78.8 °F - 73.4 °F 83% 29.86 in 6.2 mi SSW 5.8 mph - N/A   Scattered Clouds
9:00 PM 78.8 °F - 73.4 °F 83% 29.89 in 6.2 mi SSW 5.8 mph - N/A   Scattered Clouds
10:00 PM 78.8 °F - 73.4 °F 83% 29.89 in 6.2 mi SSW 6.9 mph - N/A   Scattered Clouds
11:00 PM 78.8 °F - 73.4 °F 83% 29.89 in 6.2 mi SSW 6.9 mph - N/A   Scattered Clouds